(136472) Makemake
ephemeris date magn radius delta ra dec elong phase
Today18 Sep 202517.152.714 AU53.576 AU13h22m+20°26'30.7°0.6°
Opposition1 Apr 202617.052.725 AU51.838 AU13h26m+20°56'152.3°0.5°
(136472) Makemake - 2025-09-18
astro.vanbuitenen.nl


 
-1 year
-1 month
-1 day
Now
+1 day
+1 month
+1 year

The interactive orbit chart above shows the body's path through the solar system and its position at the given date. Green and blue lines are shown perpendicular to the ecliptic plane: Green if the path is above the ecliptic plane, blue if it is below. (Left-click and drag to rotate the view; Right-click and drag to move the view; Use scroll wheel to zoom in our out.)

The orbital elements of Makemake are:

            e (Eccentricity)                : 0.1619387
            a (Semimajor axis)              : 45.4496818
            i (Inclination)                 : 29.03386
            Ω (Longitude of ascending node) : 79.25978
            ω (Argument of perihelion)      : 296.95325
            M (Mean anomaly)                : 168.82371
            Epoch                           : 2025 May 05

            L (Longitude of perihelion)     : 19.44138
            B (Latitude of perihelion)      : -25.63322
            P (Orbital period in years)     : 306.41            
        

The light curve chart below shows the estimated development of the minor planet's magnitude.


The all-sky chart below shows the path of the minor planet over the same period as the light curve. The current position is marked yellow.





The following chart shows the path of the minor planet in the next few days. The field of view is optimized for (~10x50) binoculars and finderscopes. A more printer-friendly version of the same chart can be found below.




Ephemerides:
Date       Time       RA (2000)    DEC (2000)    delta   radius  elong  phase   PA    magn
2025-09-18 00:00 UT   13 22 15.0   +20 26 06    53.576   52.714   30.7    0.6    56   17.1 
2025-09-18 10:24 UT   13 22 16.9   +20 25 49    53.577   52.714   30.5    0.6    56   17.1 
2025-09-19 00:00 UT   13 22 19.4   +20 25 28    53.579   52.714   30.3    0.6    55   17.1 
2025-09-20 00:00 UT   13 22 23.8   +20 24 50    53.583   52.714   29.9    0.5    53   17.1 
2025-09-21 00:00 UT   13 22 28.3   +20 24 13    53.586   52.714   29.5    0.5    51   17.1 
2025-09-22 00:00 UT   13 22 32.8   +20 23 36    53.589   52.714   29.1    0.5    49   17.1 
2025-09-23 00:00 UT   13 22 37.3   +20 22 59    53.592   52.714   28.7    0.5    48   17.1 
2025-09-24 00:00 UT   13 22 41.9   +20 22 23    53.595   52.714   28.4    0.5    46   17.1 
2025-09-25 00:00 UT   13 22 46.4   +20 21 47    53.597   52.714   28.1    0.5    44   17.1 
2025-09-26 00:00 UT   13 22 51.0   +20 21 11    53.599   52.715   27.9    0.5    42   17.1 
2025-09-27 00:00 UT   13 22 55.7   +20 20 36    53.601   52.715   27.6    0.5    40   17.1 
2025-09-28 00:00 UT   13 23 00.3   +20 20 01    53.602   52.715   27.4    0.5    38   17.1 
2025-09-29 00:00 UT   13 23 05.0   +20 19 27    53.603   52.715   27.2    0.5    36   17.1 
2025-09-30 00:00 UT   13 23 09.7   +20 18 53    53.604   52.715   27.1    0.5    34   17.1 
2025-10-01 00:00 UT   13 23 14.4   +20 18 19    53.605   52.715   27.0    0.5    31   17.1 
2025-10-02 00:00 UT   13 23 19.1   +20 17 46    53.606   52.715   26.9    0.5    29   17.1 
2025-10-03 00:00 UT   13 23 23.9   +20 17 14    53.606   52.715   26.8    0.5    27   17.1 
2025-10-04 00:00 UT   13 23 28.6   +20 16 41    53.606   52.715   26.8    0.5    25   17.1 
2025-10-05 00:00 UT   13 23 33.4   +20 16 10    53.606   52.715   26.8    0.5    23   17.1 
2025-10-06 00:00 UT   13 23 38.2   +20 15 38    53.605   52.715   26.9    0.5    21   17.1 
2025-10-07 00:00 UT   13 23 43.0   +20 15 08    53.604   52.715   26.9    0.5    19   17.1 
2025-10-08 00:00 UT   13 23 47.8   +20 14 37    53.603   52.715   27.0    0.5    17   17.1 
2025-10-09 00:00 UT   13 23 52.7   +20 14 07    53.602   52.715   27.2    0.5    14   17.1 
2025-10-10 00:00 UT   13 23 57.5   +20 13 38    53.601   52.715   27.3    0.5    12   17.1 
2025-10-11 00:00 UT   13 24 02.3   +20 13 09    53.599   52.715   27.5    0.5    10   17.1 
2025-10-12 00:00 UT   13 24 07.2   +20 12 41    53.597   52.715   27.8    0.5     8   17.1 
2025-10-13 00:00 UT   13 24 12.1   +20 12 13    53.594   52.716   28.0    0.5     6   17.1 
2025-10-14 00:00 UT   13 24 16.9   +20 11 46    53.592   52.716   28.3    0.5     4   17.1 
2025-10-15 00:00 UT   13 24 21.8   +20 11 19    53.589   52.716   28.6    0.5     2   17.1 
2025-10-16 00:00 UT   13 24 26.6   +20 10 53    53.586   52.716   28.9    0.5     1   17.1 
2025-10-17 00:00 UT   13 24 31.5   +20 10 27    53.583   52.716   29.3    0.5   359   17.1 
2025-10-18 00:00 UT   13 24 36.4   +20 10 02    53.579   52.716   29.7    0.5   357   17.1 


    Terminology:
            
    delta:  distance between minor planet and earth in AU
    radius: distance between minor planet and sun in AU
    magn:   magnitude (brightness) estimate    
    ra:     right ascension in hours (24h = 360deg)
    dec:    declination in degrees
    elong:  elongation in degrees (angle sun-earth-minor planet)    
    phase:  phase angle in degrees (angle sun-minor planet-earth)        
    AU:     Astronomical Unit (mean distance between earth and sun: 149597870.7 km
    

Orbital elements provided by the MPC (Minor Planet Center).
Calculations by a modified version of AAPlus, a C# implementation of the AA+ project by PJ Naughter from the algorithms presented in the book "Astronomical Algorithms" by Jean Meeus.
NGC2000 dso catalog and star labels from VizieR as provided by the Strasbourg astronomical Data Center.
Tycho2 catalog from the ESO archive.